User: anonymous   Login
Location: Unspecified
(64.9000°N, 0.0000°E)
Time: 20:05:41
(UTC+00:00)
Language:

S-56A Canister/Altair - Orbit

View from above orbital plane
View from above orbital plane
View from above satellite
View from above satellite

Ground track
Ground track

The orbit data is extracted from the following two-line orbital elements,

1    82U 61004B   19174.86352683 +.00000040 +00000-0 +71934-4 0  9996
2    82 038.8564 089.8505 1174625 148.1029 219.6555 12.26039014763672
Epoch (UTC): 23 June 2019 20:43:28
Eccentricity: 0.1174625
inclination: 38.8564°
perigee height: 633 km
apogee height: 2499 km
right ascension of ascending node: 89.8505°
argument of perigee: 148.1029°
revolutions per day: 12.26039014
mean anomaly at epoch: 219.6555°
orbit number at epoch: 76367

The dashed part of the orbit path shows where the satellite is in the earth's shadow,  

DLR